Weather History for EDQM - August, 2013

Change the Weather History Date:

Wednesday, August 28, 2013

  Actual Average Record
Temperature  
Mean Temperature 58 °F -  
Max Temperature 65 °F 65 °F 80 °F (1997)
Min Temperature 51 °F 49 °F 40 °F (2014)
Degree Days  
Heating Degree Days 7    
Growing Degree Days 8 (Base 50)    
Moisture  
Dew Point 48 °F    
Average Humidity 71    
Maximum Humidity 88    
Minimum Humidity 42    
Precipitation  
Precipitation 0.00 in - - ()
Sea Level Pressure  
Sea Level Pressure 30.06 in    
Wind  
Wind Speed 4 mph ()    
Max Wind Speed 10 mph    
Max Gust Speed -    
Visibility 7.8 miles    
Events Rain    
Averages and records for this station are not official NWS values.
T = Trace of Precipitation, MM = Missing Value Source: Averaged Metar Reports

Daily Weather History Graph

Daily Weather History Graph

Search for Another Location

Airport or City:

Trip Planner

Search our weather history database for the weather conditions in past years. The results will help you decide how hot, cold, wet, or windy it might be!

Date:

Astronomy

Aug. 28, 2013 Rise Set
Actual Time 6:21 AM CEST 8:05 PM CEST
Civil Twilight 5:46 AM CEST 8:39 PM CEST
Nautical Twilight 5:04 AM CEST 9:21 PM CEST
Astronomical Twilight 4:17 AM CEST 10:08 PM CEST
Moon 11:43 PM CEST 2:44 PM CEST
Length of Visible Light 14h 52m
Length of Day
13h 44m
Waning Gibbous, 50% of the Moon is Illuminated
Aug 28
Waning Gibbous
Sep 5
New
Sep 12
First Quarter
Sep 19
Full
Sep 27
Last Quarter

Hourly Weather History & Observations

Time (CEST) Temp. Dew Point Humidity Pressure Visibility Wind Dir Wind Speed Gust Speed Precip Events Conditions
12:00 AM 55 °F 49 °F 72% 29.98 in 12 mi East 2.2 mph - -   Overcast
12:20 AM 51.8 °F 48.2 °F 88% 30.01 in 6.2 mi West 2.3 mph - N/A   Overcast
12:50 AM 51.8 °F 48.2 °F 88% 30.01 in 6.2 mi Variable 2.3 mph - N/A   Overcast
1:00 AM 53 °F 50 °F 87% 29.98 in 9 mi West 2.2 mph - -   Overcast
1:20 AM 51.8 °F 48.2 °F 88% 30.01 in 6.2 mi NNW 3.5 mph - N/A   Overcast
1:50 AM 51.8 °F 48.2 °F 88% 30.01 in 6.2 mi NNW 4.6 mph - N/A   Overcast
2:00 AM 54 °F 50 °F 81% 29.98 in 8 mi NNW 2.2 mph - -   Overcast
2:20 AM 53.6 °F 48.2 °F 82% 30.01 in 6.2 mi North 4.6 mph - N/A   Overcast
2:50 AM 53.6 °F 48.2 °F 82% 30.01 in 6.2 mi NW 5.8 mph - N/A   Overcast
3:00 AM 53 °F 50 °F 86% 29.97 in 8 mi NNW 4.5 mph - -   Overcast
3:20 AM 51.8 °F 48.2 °F 88% 30.01 in 6.2 mi NW 4.6 mph - N/A   Overcast
3:50 AM 53.6 °F 48.2 °F 82% 30.01 in 6.2 mi NW 5.8 mph - N/A   Overcast
4:00 AM 53 °F 50 °F 84% 29.98 in 7 mi NNW 4.5 mph - -  
4:20 AM 51.8 °F 48.2 °F 88% 30.01 in 6.2 mi NNW 3.5 mph - N/A   Mostly Cloudy
4:50 AM 51.8 °F 48.2 °F 88% 30.01 in 6.2 mi NNW 4.6 mph - N/A   Mostly Cloudy
5:20 AM 51.8 °F 48.2 °F 88% 30.01 in 6.2 mi NNW 4.6 mph - N/A   Overcast
5:50 AM 51.8 °F 48.2 °F 88% 30.01 in 6.2 mi NNW 5.8 mph - N/A   Overcast
6:20 AM 51.8 °F 46.4 °F 82% 30.01 in 6.2 mi NW 4.6 mph - N/A   Mostly Cloudy
6:50 AM 51.8 °F 46.4 °F 82% 30.01 in 5.6 mi NW 5.8 mph - N/A Rain Light Rain
7:20 AM 51.8 °F 48.2 °F 88% 30.04 in 5.0 mi NW 6.9 mph - N/A   Light Drizzle
7:50 AM 51.8 °F 48.2 °F 88% 30.04 in 6.2 mi NW 5.8 mph - N/A   Overcast
8:00 AM 52 °F 49 °F 86% 30.01 in 6 mi NW 4.5 mph - - Rain Light Rain
8:20 AM 53.6 °F 48.2 °F 82% 30.04 in 6.2 mi NNW 4.6 mph - N/A   Scattered Clouds
9:00 AM 54 °F 50 °F 81% 30.01 in 10 mi NNW 2.2 mph - -   Partly Cloudy
9:20 AM 55.4 °F 48.2 °F 77% 30.04 in - North 5.8 mph - N/A   Clear
9:50 AM 57.2 °F 46.4 °F 67% 30.04 in - NNE 6.9 mph - N/A   Clear
10:00 AM 57 °F 49 °F 68% 30.01 in 14 mi NE 6.7 mph - -   Scattered Clouds
10:20 AM 59.0 °F 46.4 °F 63% 30.06 in - NNE 8.1 mph - N/A   Clear
10:50 AM 59.0 °F 46.4 °F 63% 30.06 in 6.2 mi NE 8.1 mph - N/A   Mostly Cloudy
11:50 AM 60.8 °F 48.2 °F 63% 30.06 in 6.2 mi NNE 6.9 mph - N/A   Mostly Cloudy
12:00 PM 59 °F 49 °F 61% 30.02 in 14 mi NNE 8.9 mph - -   Partly Cloudy
12:20 PM 60.8 °F 48.2 °F 63% 30.06 in 6.2 mi NNE 8.1 mph - N/A   Mostly Cloudy
12:50 PM 60.8 °F 48.2 °F 63% 30.06 in 6.2 mi North 6.9 mph - N/A   Mostly Cloudy
1:00 PM 61 °F 50 °F 57% 30.02 in 11 mi NE 8.9 mph - -   Mostly Cloudy
1:20 PM 62.6 °F 48.2 °F 59% 30.09 in 6.2 mi NNE 6.9 mph - N/A   Mostly Cloudy
1:50 PM 62.6 °F 48.2 °F 59% 30.09 in 6.2 mi NNE 10.4 mph - N/A   Mostly Cloudy
2:00 PM 62 °F 50 °F 56% 30.02 in 14 mi NNE 6.7 mph - -   Mostly Cloudy
2:20 PM 64.4 °F 48.2 °F 56% 30.09 in 6.2 mi NNE 10.4 mph - N/A   Mostly Cloudy
2:50 PM 66.2 °F 44.6 °F 46% 30.09 in 6.2 mi NNE 9.2 mph - N/A   Overcast
3:00 PM 64 °F 49 °F 47% 30.01 in 16 mi ENE 8.9 mph - -   Mostly Cloudy
3:20 PM 66.2 °F 46.4 °F 49% 30.09 in 6.2 mi NNE 8.1 mph - N/A   Overcast
3:50 PM 64.4 °F 46.4 °F 52% 30.09 in 6.2 mi North 6.9 mph - N/A   Mostly Cloudy
4:20 PM 64.4 °F 46.4 °F 52% 30.09 in 6.2 mi North 8.1 mph - N/A   Mostly Cloudy
4:50 PM 64.4 °F 46.4 °F 52% 30.09 in 6.2 mi North 8.1 mph - N/A   Mostly Cloudy
5:20 PM 64.4 °F 46.4 °F 52% 30.09 in - North 8.1 mph - N/A   Clear
5:50 PM 64.4 °F 44.6 °F 49% 30.09 in - NNE 6.9 mph - N/A   Clear
6:00 PM 64 °F 47 °F 42% 30.04 in 19 mi NNE 4.5 mph - -   Mostly Cloudy
6:20 PM 64.4 °F 44.6 °F 49% 30.12 in - NNE 5.8 mph - N/A   Clear
6:50 PM 62.6 °F 46.4 °F 55% 30.12 in - NNE 4.6 mph - N/A   Clear
7:00 PM 63 °F 48 °F 47% 30.05 in 22 mi NNE 4.5 mph - -   Scattered Clouds
7:20 PM 62.6 °F 46.4 °F 55% 30.12 in - North 3.5 mph - N/A   Clear
7:50 PM 59.0 °F 48.2 °F 67% 30.12 in - Variable 2.3 mph - N/A   Clear
8:00 PM 62 °F 48 °F 51% 30.07 in 22 mi NE 2.2 mph - -   Scattered Clouds
8:20 PM 57.2 °F 48.2 °F 72% 30.12 in 6.2 mi Variable 2.3 mph - N/A   Overcast
8:50 PM 55.4 °F 50.0 °F 82% 30.15 in 6.2 mi Calm Calm - N/A   Overcast
9:00 PM 59 °F 50 °F 64% 30.10 in 16 mi South 2.2 mph - -   Partly Cloudy
9:20 PM 53.6 °F 48.2 °F 82% 30.15 in 6.2 mi West 4.6 mph - N/A   Scattered Clouds
9:50 PM 53.6 °F 50.0 °F 88% 30.15 in 6.2 mi Variable 2.3 mph - N/A   Overcast
10:00 PM 56 °F 51 °F 76% 30.12 in 12 mi West 2.2 mph - -   Overcast
10:20 PM 53.6 °F 48.2 °F 82% 30.15 in 6.2 mi Variable 2.3 mph - N/A   Mostly Cloudy
10:50 PM 51.8 °F 48.2 °F 88% 30.15 in 6.2 mi South 2.3 mph - N/A   Scattered Clouds
11:20 PM 51.8 °F 48.2 °F 88% 30.15 in 6.2 mi Variable 1.2 mph - N/A   Scattered Clouds
11:50 PM 51.8 °F 48.2 °F 88% 30.18 in 6.2 mi NNW 4.6 mph - N/A   Mostly Cloudy